• In Sweden
  • List of Countries
  • For 7 days
  • Water Temperature
  • Satellite Maps
  • Weather Map
  • Weather Widgets
  • user-avatar
    Login

    Hourly Weather Kurzhino

    Today, 23 May, Wednesday

    Time Temperature Precipitation Wind Pressure Humidity
    00:00 +4°C° 0 mm 1 mps 743 mmHg 68%
    01:00 +3°C° 0 mm 1 mps 743 mmHg 69%
    02:00 +3°C° 0 mm 1 mps 743 mmHg 70%
    03:00 +3°C° 0 mm 1 mps 744 mmHg 70%
    04:00 +4°C° 0 mm 1 mps 744 mmHg 68%
    05:00 +5°C° 0 mm 1 mps 744 mmHg 65%
    06:00 +6°C° 0 mm 1 mps 744 mmHg 66%
    07:00 +6°C° 0 mm 2 mps 744 mmHg 62%
    08:00 +7°C° 0 mm 2 mps 745 mmHg 57%
    09:00 +8°C° 0 mm 3 mps 745 mmHg 53%
    10:00 +7°C° 0.1 mm 4 mps 745 mmHg 56%
    11:00 +7°C° 0.1 mm 5 mps 746 mmHg 59%
    12:00 +6°C° 0 mm 5 mps 746 mmHg 63%
    13:00 +5°C° 0.1 mm 6 mps 747 mmHg 59%
    14:00 +5°C° 0.1 mm 6 mps 747 mmHg 55%
    15:00 +5°C° 0.1 mm 6 mps 748 mmHg 52%
    16:00 +5°C° 0 mm 6 mps 748 mmHg 49%
    17:00 +5°C° 0 mm 6 mps 748 mmHg 47%
    18:00 +5°C° 0 mm 6 mps 749 mmHg 44%
    19:00 +4°C° 0 mm 6 mps 749 mmHg 48%
    20:00 +3°C° 0 mm 5 mps 750 mmHg 53%
    21:00 +2°C° 0 mm 5 mps 750 mmHg 57%
    22:00 +1°C° 0 mm 4 mps 751 mmHg 61%
    23:00 0°C° 0 mm 4 mps 751 mmHg 66%

    Tomorrow, 24 May, Thursday

    Time Temperature Precipitation Wind Pressure Humidity
    00:00 -1°C° 0 mm 4 mps 751 mmHg 70%
    01:00 -2°C° 0 mm 4 mps 752 mmHg 73%
    02:00 -2°C° 0 mm 4 mps 752 mmHg 77%
    03:00 -3°C° 0 mm 4 mps 752 mmHg 80%
    04:00 -2°C° 0 mm 3 mps 753 mmHg 77%
    05:00 -1°C° 0 mm 3 mps 753 mmHg 75%
    06:00 -1°C° 0 mm 3 mps 753 mmHg 72%
    07:00 +1°C° 0 mm 3 mps 753 mmHg 64%
    08:00 +2°C° 0 mm 3 mps 753 mmHg 56%
    09:00 +3°C° 0 mm 3 mps 753 mmHg 48%
    10:00 +5°C° 0 mm 3 mps 753 mmHg 44%
    11:00 +7°C° 0 mm 3 mps 752 mmHg 39%
    12:00 +8°C° 0 mm 3 mps 752 mmHg 35%
    13:00 +10°C° 0 mm 4 mps 751 mmHg 32%
    14:00 +11°C° 0 mm 4 mps 751 mmHg 29%
    15:00 +12°C° 0 mm 4 mps 750 mmHg 27%
    16:00 +12°C° 0 mm 4 mps 750 mmHg 28%
    17:00 +12°C° 0 mm 4 mps 750 mmHg 30%
    18:00 +13°C° 0 mm 5 mps 749 mmHg 32%
    19:00 +11°C° 0 mm 4 mps 749 mmHg 39%
    20:00 +10°C° 0 mm 4 mps 748 mmHg 47%
    21:00 +8°C° 0 mm 4 mps 748 mmHg 55%
    22:00 +7°C° 0.2 mm 4 mps 747 mmHg 64%
    23:00 +7°C° 0.2 mm 5 mps 747 mmHg 73%

    Day after tomorrow, 25 May, Friday

    Time Temperature Precipitation Wind Pressure Humidity
    00:00 +6°C° 0.2 mm 5 mps 747 mmHg 81%
    01:00 +6°C° 0.3 mm 5 mps 746 mmHg 84%
    02:00 +5°C° 0.3 mm 5 mps 746 mmHg 87%
    03:00 +5°C° 0.3 mm 4 mps 746 mmHg 90%
    04:00 +5°C° 0.6 mm 4 mps 746 mmHg 91%
    05:00 +5°C° 0.6 mm 4 mps 746 mmHg 92%
    06:00 +5°C° 0.6 mm 4 mps 746 mmHg 93%
    07:00 +5°C° 0.8 mm 4 mps 747 mmHg 91%
    08:00 +5°C° 0.8 mm 4 mps 747 mmHg 88%
    09:00 +5°C° 0.8 mm 4 mps 747 mmHg 86%
    10:00 +6°C° 0.1 mm 4 mps 748 mmHg 75%
    11:00 +7°C° 0.1 mm 4 mps 748 mmHg 64%
    12:00 +10°C° 0.1 mm 4 mps 749 mmHg 53%
    13:00 +11°C° 0 mm 4 mps 749 mmHg 45%
    14:00 +12°C° 0 mm 4 mps 750 mmHg 37%
    15:00 +13°C° 0 mm 4 mps 750 mmHg 28%
    16:00 +13°C° 0 mm 4 mps 750 mmHg 28%
    17:00 +12°C° 0 mm 4 mps 751 mmHg 27%
    18:00 +12°C° 0 mm 4 mps 751 mmHg 27%
    19:00 +10°C° 0 mm 3 mps 752 mmHg 32%
    20:00 +8°C° 0 mm 3 mps 752 mmHg 38%
    21:00 +6°C° 0 mm 2 mps 753 mmHg 43%
    22:00 +5°C° 0 mm 2 mps 753 mmHg 46%
    23:00 +4°C° 0 mm 2 mps 753 mmHg 49%

    26 May, Saturday

    Time Temperature Precipitation Wind Pressure Humidity
    00:00 +3°C° 0 mm 2 mps 753 mmHg 51%
    01:00 +3°C° 0 mm 1 mps 753 mmHg 53%
    02:00 +3°C° 0 mm 1 mps 753 mmHg 55%
    03:00 +2°C° 0 mm 1 mps 754 mmHg 57%
    04:00 +3°C° 0 mm 1 mps 754 mmHg 54%
    05:00 +4°C° 0 mm 1 mps 754 mmHg 52%
    06:00 +5°C° 0 mm 1 mps 754 mmHg 49%
    07:00 +7°C° 0 mm 1 mps 754 mmHg 43%
    08:00 +9°C° 0 mm 0 mps 754 mmHg 37%
    09:00 +11°C° 0 mm 0 mps 754 mmHg 31%
    10:00 +12°C° 0 mm 0 mps 754 mmHg 29%
    11:00 +14°C° 0 mm 1 mps 754 mmHg 27%
    12:00 +15°C° 0 mm 1 mps 754 mmHg 25%
    13:00 +15°C° 0 mm 1 mps 754 mmHg 25%
    14:00 +14°C° 0 mm 1 mps 753 mmHg 25%
    15:00 +14°C° 0 mm 1 mps 753 mmHg 26%
    16:00 +14°C° 0 mm 1 mps 753 mmHg 27%
    17:00 +14°C° 0 mm 1 mps 753 mmHg 28%
    18:00 +13°C° 0 mm 1 mps 753 mmHg 29%
    19:00 +12°C° 0 mm 1 mps 753 mmHg 35%
    20:00 +11°C° 0 mm 1 mps 753 mmHg 41%
    21:00 +9°C° 0 mm 1 mps 753 mmHg 47%
    22:00 +7°C° 0 mm 2 mps 754 mmHg 53%
    23:00 +6°C° 0 mm 2 mps 754 mmHg 60%

    27 May, Sunday

    Time Temperature Precipitation Wind Pressure Humidity
    00:00 +5°C° 0 mm 2 mps 754 mmHg 67%
    01:00 +4°C° 0.1 mm 2 mps 754 mmHg 70%
    02:00 +4°C° 0.1 mm 2 mps 755 mmHg 74%
    03:00 +5°C° 0.1 mm 1 mps 755 mmHg 78%
    04:00 +5°C° 0 mm 1 mps 755 mmHg 74%
    05:00 +5°C° 0 mm 2 mps 755 mmHg 71%
    06:00 +5°C° 0 mm 2 mps 755 mmHg 68%
    07:00 +6°C° 0 mm 2 mps 756 mmHg 57%
    08:00 +8°C° 0 mm 3 mps 756 mmHg 46%
    09:00 +9°C° 0 mm 3 mps 756 mmHg 34%
    10:00 +10°C° 0 mm 3 mps 756 mmHg 32%
    11:00 +11°C° 0 mm 4 mps 755 mmHg 30%
    12:00 +12°C° 0 mm 4 mps 755 mmHg 28%
    13:00 +13°C° 0 mm 4 mps 755 mmHg 27%
    14:00 +14°C° 0 mm 5 mps 754 mmHg 26%
    15:00 +15°C° 0 mm 5 mps 754 mmHg 25%
    16:00 +15°C° 0 mm 5 mps 754 mmHg 26%
    17:00 +15°C° 0 mm 5 mps 753 mmHg 27%
    18:00 +15°C° 0 mm 5 mps 753 mmHg 28%
    19:00 +14°C° 0 mm 4 mps 753 mmHg 34%
    20:00 +12°C° 0 mm 3 mps 753 mmHg 40%
    21:00 +10°C° 0 mm 2 mps 753 mmHg 46%
    22:00 +9°C° 0 mm 2 mps 753 mmHg 49%
    23:00 +9°C° 0 mm 2 mps 753 mmHg 52%

    28 May, Monday

    Time Temperature Precipitation Wind Pressure Humidity
    00:00 +8°C° 0 mm 2 mps 753 mmHg 54%
    01:00 +7°C° 0 mm 2 mps 753 mmHg 57%
    02:00 +6°C° 0 mm 2 mps 753 mmHg 59%
    03:00 +6°C° 0 mm 2 mps 753 mmHg 61%
    04:00 +8°C° 0 mm 1 mps 753 mmHg 59%
    05:00 +8°C° 0 mm 1 mps 753 mmHg 57%
    06:00 +9°C° 0 mm 1 mps 752 mmHg 55%
    07:00 +11°C° 0 mm 1 mps 752 mmHg 49%
    08:00 +13°C° 0 mm 2 mps 752 mmHg 43%
    09:00 +16°C° 0 mm 2 mps 752 mmHg 37%
    10:00 +17°C° 0 mm 2 mps 751 mmHg 35%
    11:00 +17°C° 0 mm 3 mps 750 mmHg 33%
    12:00 +18°C° 0 mm 3 mps 750 mmHg 31%
    13:00 +17°C° 0.2 mm 3 mps 749 mmHg 38%
    14:00 +16°C° 0.2 mm 3 mps 749 mmHg 46%
    15:00 +14°C° 0.2 mm 4 mps 748 mmHg 53%
    16:00 +13°C° 0.4 mm 4 mps 747 mmHg 61%
    17:00 +12°C° 0.4 mm 4 mps 747 mmHg 69%
    18:00 +11°C° 0.4 mm 4 mps 746 mmHg 77%
    19:00 +11°C° 0 mm 4 mps 745 mmHg 76%
    20:00 +10°C° 0 mm 4 mps 745 mmHg 76%
    21:00 +10°C° 0 mm 4 mps 744 mmHg 75%
    22:00 +10°C° 0.1 mm 4 mps 743 mmHg 75%
    23:00 +9°C° 0.1 mm 5 mps 741 mmHg 75%
    Show more